| time (UTC) | temp F | wind direction | speed knots | gust knots | rain 1hr in | rain 24hr in | rain mn in | humidity % | barometer mb |
| 20260906215041 | 68 | 13 | 4.3 | 7.0 | 0.00 | 0.00 | 0.00 | 74 | 1018.0 |
| 20260906214558 | 68 | 28 | 2.6 | 7.0 | 0.00 | 0.00 | 0.00 | 73 | 1017.9 |
| 20260906214041 | 68 | 5 | 2.6 | 7.0 | 0.00 | 0.00 | 0.00 | 73 | 1017.9 |
| 20260906213541 | 68 | 11 | 5.2 | 7.0 | 0.00 | 0.00 | 0.00 | 74 | 1018.0 |
| 20260906213041 | 68 | 34 | 3.5 | 7.0 | 0.00 | 0.00 | 0.00 | 74 | 1018.1 |
| 20260906212540 | 68 | 22 | 1.7 | 7.0 | 0.00 | 0.00 | 0.00 | 74 | 1018.0 |
| 20260906212041 | 68 | 40 | 3.5 | 7.8 | 0.00 | 0.00 | 0.00 | 74 | 1018.0 |
| 20260906211545 | 68 | 19 | 3.5 | 7.0 | 0.00 | 0.00 | 0.00 | 75 | 1018.0 |
| 20260906211040 | 68 | 17 | 3.5 | 7.8 | 0.00 | 0.00 | 0.00 | 75 | 1018.0 |
| 20260906210540 | 68 | 29 | 6.1 | 7.8 | 0.00 | 0.00 | 0.00 | 75 | 1018.1 |
| 20260906210107 | 68 | 28 | 5.2 | 8.7 | 0.00 | 0.00 | 0.00 | 75 | 1018.1 |
| 20260906205540 | 68 | 28 | 5.2 | 8.7 | 0.00 | 0.00 | 0.00 | 76 | 1018.1 |
| 20260906205039 | 68 | 50 | 4.3 | 8.7 | 0.00 | 0.00 | 0.00 | 77 | 1018.2 |
| 20260906204551 | 68 | 24 | 6.1 | 8.7 | 0.00 | 0.00 | 0.00 | 73 | 1018.1 |
| 20260906204039 | 68 | 63 | 3.5 | 8.7 | 0.00 | 0.00 | 0.00 | 76 | 1018.0 |
| 20260906203539 | 68 | 48 | 5.2 | 8.7 | 0.00 | 0.00 | 0.00 | 76 | 1018.0 |
| 20260906203044 | 68 | 44 | 6.1 | 11.3 | 0.00 | 0.00 | 0.00 | 74 | 1017.9 |
| 20260906202538 | 68 | 38 | 7.0 | 11.3 | 0.00 | 0.00 | 0.00 | 76 | 1018.0 |
| 20260906202041 | 68 | 55 | 6.1 | 10.4 | 0.00 | 0.00 | 0.00 | 75 | 1018.0 |
| 20260906201547 | 68 | 38 | 4.3 | 10.4 | 0.00 | 0.00 | 0.00 | 77 | 1018.0 |
| 20260906201038 | 68 | 46 | 5.2 | 10.4 | 0.00 | 0.00 | 0.00 | 77 | 1018.2 |
| 20260906200539 | 67 | 44 | 6.1 | 12.2 | 0.00 | 0.00 | 0.00 | 78 | 1018.0 |
| 20260906200040 | 67 | 22 | 8.7 | 12.2 | 0.00 | 0.00 | 0.00 | 76 | 1018.1 |
| 20260906195536 | 67 | 49 | 6.1 | 11.3 | 0.00 | 0.00 | 0.00 | 78 | 1018.2 |
| 20260906195037 | 67 | 31 | 7.0 | 11.3 | 0.00 | 0.00 | 0.00 | 76 | 1018.1 |
| 20260906194536 | 67 | 40 | 6.1 | 11.3 | 0.00 | 0.00 | 0.00 | 78 | 1018.1 |
| 20260906194036 | 67 | 27 | 7.8 | 12.2 | 0.00 | 0.00 | 0.00 | 76 | 1018.1 |
| 20260906193538 | 67 | 38 | 8.7 | 12.2 | 0.00 | 0.00 | 0.00 | 78 | 1018.1 |
| 20260906193036 | 67 | 37 | 9.6 | 12.2 | 0.00 | 0.00 | 0.00 | 78 | 1018.0 |
| 20260906192536 | 67 | 39 | 7.0 | 12.2 | 0.00 | 0.00 | 0.00 | 79 | 1018.1 |
| 20260906192036 | 67 | 44 | 7.8 | 13.9 | 0.00 | 0.00 | 0.00 | 80 | 1018.1 |
| 20260906191543 | 67 | 44 | 7.8 | 13.9 | 0.00 | 0.00 | 0.00 | 78 | 1018.1 |
| 20260906191035 | 67 | 49 | 7.8 | 12.2 | 0.00 | 0.00 | 0.00 | 78 | 1018.1 |
| 20260906190535 | 67 | 45 | 7.8 | 13.0 | 0.00 | 0.00 | 0.00 | 76 | 1018.1 |
| 20260906190035 | 67 | 51 | 7.8 | 13.0 | 0.00 | 0.00 | 0.00 | 78 | 1018.1 |
| 20260906185534 | 67 | 41 | 7.0 | 11.3 | 0.00 | 0.00 | 0.00 | 79 | 1018.1 |
| 20260906185034 | 67 | 69 | 6.1 | 13.9 | 0.00 | 0.00 | 0.00 | 78 | 1018.1 |
| 20260906184535 | 67 | 42 | 8.7 | 13.9 | 0.00 | 0.00 | 0.00 | 79 | 1018.1 |
| 20260906184038 | 67 | 42 | 8.7 | 12.2 | 0.00 | 0.00 | 0.00 | 79 | 1018.1 |
| 20260906183533 | 67 | 53 | 6.1 | 12.2 | 0.00 | 0.00 | 0.00 | 80 | 1018.1 |
| 20260906183035 | 67 | 55 | 7.0 | 11.3 | 0.00 | 0.00 | 0.00 | 80 | 1018.1 |
| 20260906182533 | 66 | 52 | 7.0 | 13.0 | 0.00 | 0.00 | 0.00 | 81 | 1018.2 |
| 20260906182033 | 67 | 38 | 9.6 | 13.0 | 0.00 | 0.00 | 0.00 | 80 | 1018.1 |
| 20260906181537 | 67 | 44 | 7.0 | 13.0 | 0.00 | 0.00 | 0.00 | 81 | 1018.1 |
| 20260906181033 | 67 | 49 | 7.8 | 13.9 | 0.00 | 0.00 | 0.00 | 80 | 1018.2 |
| 20260906180533 | 66 | 55 | 8.7 | 13.9 | 0.00 | 0.00 | 0.00 | 80 | 1018.2 |
| 20260906180052 | 66 | 65 | 7.0 | 13.0 | 0.00 | 0.00 | 0.00 | 81 | 1018.3 |
| 20260906175533 | 66 | 42 | 9.6 | 13.0 | 0.00 | 0.00 | 0.00 | 81 | 1018.2 |
| 20260906175032 | 66 | 31 | 7.8 | 11.3 | 0.00 | 0.00 | 0.00 | 82 | 1018.2 |
| 20260906174548 | 66 | 66 | 7.8 | 11.3 | 0.00 | 0.00 | 0.00 | 84 | 1018.3 |
| 20260906174032 | 66 | 54 | 4.3 | 11.3 | 0.00 | 0.00 | 0.00 | 82 | 1018.4 |
| 20260906173534 | 66 | 41 | 6.1 | 13.0 | 0.00 | 0.00 | 0.00 | 81 | 1018.4 |
| 20260906173034 | 66 | 51 | 9.6 | 13.0 | 0.00 | 0.00 | 0.00 | 82 | 1018.3 |
| 20260906172531 | 66 | 26 | 7.8 | 13.0 | 0.00 | 0.00 | 0.00 | 82 | 1018.5 |
| 20260906172031 | 66 | 77 | 4.3 | 10.4 | 0.00 | 0.00 | 0.00 | 82 | 1018.6 |
| 20260906171531 | 66 | 83 | 3.5 | 8.7 | 0.00 | 0.00 | 0.00 | 82 | 1018.5 |
| 20260906171031 | 66 | 74 | 1.7 | 11.3 | 0.00 | 0.00 | 0.00 | 82 | 1018.5 |
| 20260906170529 | 66 | 40 | 8.7 | 13.9 | 0.00 | 0.00 | 0.00 | 82 | 1018.3 |
| 20260906170030 | 66 | 50 | 7.0 | 13.9 | 0.00 | 0.00 | 0.00 | 82 | 1018.3 |
| 20260906165529 | 66 | 66 | 7.8 | 13.9 | 0.00 | 0.00 | 0.00 | 82 | 1018.3 |
| 20260906165029 | 66 | 37 | 9.6 | 13.0 | 0.00 | 0.00 | 0.00 | 83 | 1018.2 |
| 20260906164528 | 66 | 47 | 5.2 | 11.3 | 0.00 | 0.00 | 0.00 | 84 | 1018.2 |
| 20260906164027 | 66 | 27 | 7.8 | 11.3 | 0.00 | 0.00 | 0.00 | 83 | 1018.1 |
| 20260906163527 | 66 | 78 | 2.6 | 10.4 | 0.00 | 0.00 | 0.00 | 83 | 1018.2 |
| 20260906163028 | 66 | 61 | 2.6 | 8.7 | 0.00 | 0.00 | 0.00 | 82 | 1018.2 |
| 20260906162528 | 66 | 69 | 4.3 | 9.6 | 0.00 | 0.00 | 0.00 | 82 | 1018.3 |
| 20260906162028 | 66 | 45 | 4.3 | 9.6 | 0.00 | 0.00 | 0.00 | 83 | 1018.4 |
| 20260906161528 | 66 | 48 | 4.3 | 12.2 | 0.00 | 0.00 | 0.00 | 83 | 1018.4 |
| 20260906161032 | 66 | 61 | 3.5 | 12.2 | 0.00 | 0.00 | 0.00 | 82 | 1018.4 |
| 20260906160526 | 66 | 94 | 4.3 | 9.6 | 0.00 | 0.00 | 0.00 | 83 | 1018.3 |
| 20260906160028 | 66 | 51 | 3.5 | 9.6 | 0.00 | 0.00 | 0.00 | 82 | 1018.3 |
| 20260906155524 | 66 | 79 | 2.6 | 12.2 | 0.00 | 0.00 | 0.00 | 84 | 1018.2 |
| 20260906155023 | 66 | 34 | 6.1 | 12.2 | 0.00 | 0.00 | 0.00 | 84 | 1018.2 |
| 20260906154530 | 66 | 76 | 4.3 | 13.0 | 0.00 | 0.00 | 0.00 | 84 | 1018.2 |
| 20260906154021 | 65 | 53 | 9.6 | 13.0 | 0.00 | 0.00 | 0.00 | 85 | 1018.2 |
| 20260906153520 | 66 | 55 | 7.0 | 12.2 | 0.00 | 0.00 | 0.00 | 84 | 1018.1 |
| 20260906153032 | 65 | 63 | 5.2 | 13.0 | 0.00 | 0.00 | 0.00 | 83 | 1018.1 |
| 20260906152520 | 66 | 60 | 7.8 | 13.0 | 0.00 | 0.00 | 0.00 | 85 | 1018.2 |
| 20260906152020 | 66 | 76 | 6.1 | 12.2 | 0.00 | 0.00 | 0.00 | 85 | 1018.2 |
| 20260906151520 | 66 | 67 | 7.0 | 12.2 | 0.00 | 0.00 | 0.00 | 85 | 1018.2 |
| 20260906151019 | 66 | 51 | 7.8 | 11.3 | 0.00 | 0.00 | 0.00 | 84 | 1018.3 |
| 20260906150520 | 66 | 85 | 2.6 | 13.9 | 0.00 | 0.00 | 0.00 | 84 | 1018.2 |
| 20260906150024 | 65 | 67 | 7.0 | 13.9 | 0.00 | 0.00 | 0.00 | 84 | 1018.3 |
| 20260906145519 | 65 | 92 | 3.5 | 11.3 | 0.00 | 0.00 | 0.00 | 84 | 1018.2 |
| 20260906145017 | 65 | 96 | 4.3 | 11.3 | 0.00 | 0.00 | 0.00 | 85 | 1018.2 |
| 20260906144520 | 65 | 53 | 2.6 | 10.4 | 0.00 | 0.00 | 0.00 | 84 | 1018.2 |
| 20260906144017 | 65 | 63 | 1.7 | 11.3 | 0.00 | 0.00 | 0.00 | 84 | 1018.2 |
| 20260906143517 | 65 | 90 | 2.6 | 13.9 | 0.00 | 0.00 | 0.00 | 85 | 1018.2 |
| 20260906143021 | 65 | 93 | 8.7 | 13.9 | 0.00 | 0.00 | 0.00 | 87 | 1018.1 |
| 20260906142515 | 65 | 55 | 5.2 | 13.0 | 0.00 | 0.00 | 0.00 | 84 | 1018.0 |
| 20260906142017 | 65 | 49 | 7.8 | 13.0 | 0.00 | 0.00 | 0.00 | 86 | 1017.9 |
| 20260906141513 | 65 | 49 | 8.7 | 13.9 | 0.00 | 0.00 | 0.00 | 85 | 1017.8 |
| 20260906141015 | 65 | 86 | 2.6 | 13.0 | 0.00 | 0.00 | 0.00 | 87 | 1017.7 |
| 20260906140512 | 65 | 65 | 7.0 | 13.0 | 0.00 | 0.00 | 0.00 | 87 | 1017.7 |
| 20260906140017 | 66 | 75 | 9.6 | 12.2 | 0.00 | 0.00 | 0.00 | 88 | 1017.6 |
| 20260906135511 | 66 | 71 | 7.0 | 13.9 | 0.00 | 0.00 | 0.00 | 87 | 1017.6 |
| 20260906135008 | 66 | 68 | 7.8 | 13.0 | 0.00 | 0.00 | 0.00 | 87 | 1017.5 |
| 20260906134511 | 66 | 72 | 5.2 | 13.9 | 0.00 | 0.00 | 0.00 | 86 | 1017.5 |
| 20260906134007 | 66 | 25 | 9.6 | 13.9 | 0.00 | 0.00 | 0.00 | 88 | 1017.4 |
| 20260906133505 | 66 | 45 | 7.0 | 13.0 | 0.00 | 0.00 | 0.00 | 87 | 1017.4 |
| 20260906133018 | 66 | 59 | 7.8 | 13.9 | 0.00 | 0.00 | 0.00 | 87 | 1017.4 |
| 20260906132505 | 66 | 59 | 8.7 | 13.9 | 0.00 | 0.00 | 0.00 | 87 | 1017.3 |
| 20260906132004 | 66 | 42 | 7.8 | 13.9 | 0.00 | 0.00 | 0.00 | 87 | 1017.3 |
| 20260906131504 | 66 | 51 | 10.4 | 13.9 | 0.00 | 0.00 | 0.00 | 85 | 1017.3 |
| 20260906131004 | 66 | 65 | 8.7 | 13.0 | 0.00 | 0.00 | 0.00 | 86 | 1017.3 |
| 20260906130504 | 66 | 54 | 8.7 | 13.9 | 0.00 | 0.00 | 0.00 | 85 | 1017.3 |
| 20260906130006 | 66 | 45 | 9.6 | 13.9 | 0.00 | 0.00 | 0.00 | 87 | 1017.4 |
| 20260906125503 | 66 | 51 | 9.6 | 13.9 | 0.00 | 0.00 | 0.00 | 84 | 1017.3 |
| 20260906125003 | 66 | 77 | 10.4 | 14.8 | 0.00 | 0.00 | 0.00 | 86 | 1017.1 |
| 20260906124504 | 66 | 57 | 10.4 | 14.8 | 0.00 | 0.00 | 0.00 | 87 | 1017.1 |
| 20260906124002 | 66 | 63 | 9.6 | 14.8 | 0.00 | 0.00 | 0.00 | 87 | 1017.1 |
| 20260906123501 | 66 | 42 | 8.7 | 14.8 | 0.00 | 0.00 | 0.00 | 88 | 1017.1 |
| 20260906123102 | 66 | 67 | 10.4 | 14.8 | 0.00 | 0.00 | 0.00 | 88 | 1017.1 |
| 20260906123004 | 66 | 50 | 10.4 | 14.8 | 0.00 | 0.00 | 0.00 | 89 | 1017.0 |
| 20260906122600 | 66 | 78 | 10.4 | 14.8 | 0.00 | 0.00 | 0.00 | 88 | 1017.0 |
| 20260906122059 | 67 | 60 | 9.6 | 14.8 | 0.00 | 0.00 | 0.00 | 88 | 1016.9 |
| 20260906121558 | 66 | 55 | 7.8 | 13.9 | 0.00 | 0.00 | 0.00 | 88 | 1016.8 |
| 20260906121057 | 66 | 63 | 7.8 | 13.9 | 0.00 | 0.00 | 0.00 | 88 | 1016.8 |
| 20260906120556 | 67 | 59 | 8.7 | 15.6 | 0.00 | 0.00 | 0.00 | 89 | 1016.7 |
| 20260906120058 | 67 | 61 | 8.7 | 15.6 | 0.00 | 0.00 | 0.00 | 89 | 1016.7 |
| 20260906115554 | 67 | 55 | 9.6 | 16.5 | 0.00 | 0.00 | 0.00 | 88 | 1016.6 |
| 20260906115052 | 67 | 69 | 11.3 | 16.5 | 0.00 | 0.00 | 0.00 | 88 | 1016.4 |
| 20260906114552 | 67 | 58 | 11.3 | 15.6 | 0.00 | 0.00 | 0.00 | 89 | 1016.3 |
| 20260906114050 | 67 | 37 | 7.0 | 13.9 | 0.00 | 0.00 | 0.00 | 89 | 1016.3 |
| 20260906113550 | 67 | 91 | 5.2 | 15.6 | 0.00 | 0.00 | 0.00 | 90 | 1016.2 |
| 20260906113050 | 67 | 50 | 11.3 | 17.4 | 0.00 | 0.00 | 0.00 | 88 | 1016.1 |
| 20260906112549 | 67 | 65 | 10.4 | 17.4 | 0.00 | 0.00 | 0.00 | 89 | 1016.0 |
| 20260906112048 | 67 | 53 | 10.4 | 16.5 | 0.00 | 0.00 | 0.00 | 90 | 1015.9 |
| 20260906111550 | 67 | 50 | 9.6 | 15.6 | 0.00 | 0.00 | 0.00 | 91 | 1015.8 |
| 20260906111045 | 67 | 73 | 2.6 | 13.0 | 0.00 | 0.00 | 0.00 | 89 | 1015.9 |
| 20260906110544 | 67 | 79 | 4.3 | 13.0 | 0.00 | 0.00 | 0.00 | 89 | 1015.8 |
| 20260906110051 | 67 | 76 | 6.1 | 12.2 | 0.00 | 0.00 | 0.00 | 89 | 1015.8 |
| 20260906105541 | 67 | 76 | 2.6 | 7.0 | 0.00 | 0.00 | 0.00 | 88 | 1015.6 |
| 20260906105043 | 67 | 86 | 1.7 | 10.4 | 0.00 | 0.00 | 0.00 | 88 | 1015.6 |
| 20260906104538 | 68 | 85 | 1.7 | 14.8 | 0.00 | 0.00 | 0.00 | 88 | 1015.6 |
| 20260906104040 | 68 | 61 | 8.7 | 14.8 | 0.00 | 0.00 | 0.00 | 87 | 1015.5 |
| 20260906103538 | 68 | 39 | 6.1 | 12.2 | 0.00 | 0.00 | 0.00 | 86 | 1015.5 |
| 20260906103045 | 68 | 61 | 8.7 | 11.3 | 0.00 | 0.00 | 0.00 | 87 | 1015.5 |
| 20260906102539 | 68 | 63 | 6.1 | 11.3 | 0.00 | 0.00 | 0.00 | 85 | 1015.4 |
| 20260906102035 | 68 | 49 | 7.0 | 12.2 | 0.00 | 0.00 | 0.00 | 87 | 1015.4 |
| 20260906101535 | 68 | 46 | 6.1 | 10.4 | 0.00 | 0.00 | 0.00 | 86 | 1015.3 |
| 20260906101034 | 68 | 65 | 7.0 | 12.2 | 0.00 | 0.00 | 0.00 | 86 | 1015.3 |
| 20260906100535 | 68 | 55 | 7.0 | 12.2 | 0.00 | 0.00 | 0.00 | 87 | 1015.2 |
| 20260906100033 | 68 | 51 | 7.8 | 12.2 | 0.00 | 0.00 | 0.00 | 88 | 1015.1 |
| 20260906095533 | 68 | 47 | 8.7 | 12.2 | 0.00 | 0.00 | 0.00 | 86 | 1015.1 |
| 20260906095030 | 68 | 38 | 8.7 | 12.2 | 0.00 | 0.00 | 0.00 | 86 | 1015.0 |
| 20260906094529 | 68 | 46 | 8.7 | 12.2 | 0.00 | 0.00 | 0.00 | 87 | 1015.0 |
| 20260906094028 | 68 | 65 | 7.0 | 10.4 | 0.00 | 0.00 | 0.00 | 86 | 1015.0 |
| 20260906093531 | 68 | 60 | 6.1 | 11.3 | 0.00 | 0.00 | 0.00 | 85 | 1014.9 |
| 20260906093036 | 68 | 57 | 7.8 | 11.3 | 0.00 | 0.00 | 0.00 | 86 | 1014.9 |
| 20260906092526 | 68 | 36 | 7.0 | 10.4 | 0.00 | 0.00 | 0.00 | 86 | 1014.7 |
| 20260906092033 | 68 | 36 | 7.0 | 10.4 | 0.00 | 0.00 | 0.00 | 87 | 1014.7 |
| 20260906091525 | 68 | 32 | 7.0 | 11.3 | 0.00 | 0.00 | 0.00 | 85 | 1014.5 |
| 20260906091024 | 68 | 40 | 8.7 | 12.2 | 0.00 | 0.00 | 0.00 | 86 | 1014.4 |
| 20260906090523 | 68 | 40 | 8.7 | 12.2 | 0.00 | 0.00 | 0.00 | 86 | 1014.2 |
| 20260906090037 | 68 | 40 | 8.7 | 12.2 | 0.00 | 0.00 | 0.00 | 86 | 1014.3 |
| 20260906085523 | 69 | 59 | 7.0 | 13.0 | 0.00 | 0.00 | 0.00 | 86 | 1014.2 |
| 20260906085021 | 69 | 50 | 8.7 | 13.9 | 0.00 | 0.00 | 0.00 | 86 | 1014.2 |
| 20260906084521 | 69 | 44 | 10.4 | 13.0 | 0.00 | 0.00 | 0.00 | 86 | 1014.2 |
| 20260906084022 | 69 | 55 | 9.6 | 12.2 | 0.00 | 0.00 | 0.00 | 87 | 1014.2 |
| 20260906083520 | 69 | 42 | 7.8 | 12.2 | 0.00 | 0.00 | 0.00 | 87 | 1014.1 |
| 20260906083023 | 69 | 32 | 8.7 | 12.2 | 0.00 | 0.00 | 0.00 | 88 | 1014.1 |
| 20260906082520 | 69 | 21 | 9.6 | 13.0 | 0.00 | 0.00 | 0.00 | 88 | 1014.0 |
| 20260906082023 | 69 | 27 | 9.6 | 13.0 | 0.00 | 0.00 | 0.00 | 88 | 1014.1 |
| 20260906081519 | 69 | 25 | 8.7 | 10.4 | 0.00 | 0.00 | 0.00 | 88 | 1014.1 |
| 20260906081019 | 69 | 44 | 8.7 | 10.4 | 0.00 | 0.00 | 0.00 | 87 | 1014.1 |
| 20260906080519 | 69 | 21 | 8.7 | 10.4 | 0.00 | 0.00 | 0.00 | 87 | 1014.1 |
| 20260906080019 | 69 | 9 | 8.7 | 11.3 | 0.00 | 0.00 | 0.00 | 87 | 1014.1 |
| 20260906075517 | 69 | 11 | 7.8 | 11.3 | 0.00 | 0.00 | 0.00 | 87 | 1014.1 |
| 20260906075018 | 69 | 5 | 8.7 | 10.4 | 0.00 | 0.00 | 0.00 | 87 | 1014.1 |
| 20260906074516 | 69 | 25 | 8.7 | 11.3 | 0.00 | 0.00 | 0.00 | 87 | 1014.1 |
| 20260906074016 | 69 | 27 | 8.7 | 11.3 | 0.00 | 0.00 | 0.00 | 87 | 1014.0 |
| 20260906073514 | 69 | 28 | 7.8 | 10.4 | 0.00 | 0.00 | 0.00 | 85 | 1014.0 |
| 20260906073014 | 69 | 28 | 7.8 | 10.4 | 0.00 | 0.00 | 0.00 | 84 | 1014.0 |
| 20260906072514 | 69 | 19 | 7.8 | 11.3 | 0.00 | 0.00 | 0.00 | 85 | 1014.0 |
| 20260906072017 | 69 | 41 | 7.8 | 11.3 | 0.00 | 0.00 | 0.00 | 84 | 1014.0 |
| 20260906071514 | 69 | 46 | 7.0 | 11.3 | 0.00 | 0.00 | 0.00 | 84 | 1014.0 |
| 20260906071013 | 69 | 37 | 7.8 | 11.3 | 0.00 | 0.00 | 0.00 | 85 | 1014.0 |
| 20260906070515 | 69 | 23 | 7.8 | 11.3 | 0.00 | 0.00 | 0.00 | 85 | 1014.0 |
| 20260906070012 | 69 | 37 | 7.8 | 10.4 | 0.00 | 0.00 | 0.00 | 84 | 1014.0 |
| 20260906065512 | 69 | 34 | 7.8 | 10.4 | 0.00 | 0.00 | 0.00 | 84 | 1014.0 |
| 20260906065010 | 70 | 40 | 7.8 | 10.4 | 0.00 | 0.00 | 0.00 | 85 | 1014.1 |
| 20260906064511 | 69 | 27 | 7.0 | 9.6 | 0.00 | 0.00 | 0.00 | 84 | 1014.1 |
| 20260906064011 | 70 | 24 | 7.8 | 9.6 | 0.00 | 0.00 | 0.00 | 84 | 1014.1 |
| 20260906063510 | 70 | 12 | 7.8 | 9.6 | 0.00 | 0.00 | 0.00 | 83 | 1014.1 |
| 20260906063011 | 69 | 26 | 7.0 | 9.6 | 0.00 | 0.00 | 0.00 | 83 | 1014.1 |
| 20260906062512 | 69 | 40 | 5.2 | 8.7 | 0.00 | 0.00 | 0.00 | 83 | 1014.0 |
| 20260906062010 | 70 | 40 | 5.2 | 8.7 | 0.00 | 0.00 | 0.00 | 83 | 1014.1 |
| 20260906061510 | 70 | 13 | 4.3 | 9.6 | 0.00 | 0.00 | 0.00 | 83 | 1014.0 |
| 20260906061010 | 70 | 26 | 5.2 | 9.6 | 0.00 | 0.00 | 0.00 | 83 | 1014.1 |
| 20260906060509 | 70 | 40 | 7.0 | 10.4 | 0.00 | 0.00 | 0.00 | 82 | 1014.1 |
| 20260906060009 | 70 | 30 | 7.0 | 10.4 | 0.00 | 0.00 | 0.00 | 84 | 1014.1 |
| 20260906055512 | 70 | 40 | 5.2 | 8.7 | 0.00 | 0.00 | 0.00 | 84 | 1014.0 |
| 20260906055008 | 70 | 33 | 6.1 | 8.7 | 0.00 | 0.00 | 0.00 | 83 | 1014.1 |
| 20260906054508 | 70 | 34 | 5.2 | 9.6 | 0.00 | 0.00 | 0.00 | 83 | 1014.0 |
| 20260906054008 | 70 | 71 | 4.3 | 8.7 | 0.00 | 0.00 | 0.00 | 82 | 1014.0 |
| 20260906053507 | 70 | 61 | 4.3 | 9.6 | 0.00 | 0.00 | 0.00 | 81 | 1014.1 |
| 20260906053008 | 70 | 54 | 6.1 | 11.3 | 0.00 | 0.00 | 0.00 | 82 | 1014.0 |
| 20260906052507 | 70 | 55 | 4.3 | 11.3 | 0.00 | 0.00 | 0.00 | 81 | 1014.1 |
| 20260906052011 | 70 | 51 | 7.0 | 11.3 | 0.00 | 0.00 | 0.00 | 83 | 1014.2 |
| 20260906051507 | 70 | 53 | 7.8 | 11.3 | 0.00 | 0.00 | 0.00 | 82 | 1014.2 |
| 20260906051006 | 70 | 55 | 7.0 | 11.3 | 0.00 | 0.00 | 0.00 | 81 | 1014.1 |
| 20260906050506 | 70 | 42 | 7.0 | 11.3 | 0.00 | 0.00 | 0.00 | 82 | 1014.1 |
| 20260906050005 | 70 | 39 | 8.7 | 13.0 | 0.00 | 0.00 | 0.00 | 81 | 1014.1 |
| 20260906045505 | 70 | 62 | 9.6 | 13.9 | 0.00 | 0.00 | 0.00 | 80 | 1014.0 |
| 20260906045005 | 70 | 33 | 9.6 | 13.9 | 0.00 | 0.00 | 0.00 | 81 | 1014.0 |
| 20260906044502 | 71 | 32 | 9.6 | 13.9 | 0.00 | 0.00 | 0.00 | 82 | 1014.0 |
| 20260906044004 | 71 | 30 | 10.4 | 13.9 | 0.00 | 0.00 | 0.00 | 83 | 1013.9 |
| 20260906043501 | 71 | 39 | 9.6 | 13.9 | 0.00 | 0.00 | 0.00 | 82 | 1013.9 |
| 20260906043002 | 71 | 44 | 10.4 | 13.9 | 0.00 | 0.00 | 0.00 | 80 | 1013.9 |
| 20260906042501 | 71 | 40 | 9.6 | 13.9 | 0.00 | 0.00 | 0.00 | 80 | 1013.9 |
| 20260906042001 | 71 | 44 | 9.6 | 13.9 | 0.00 | 0.00 | 0.00 | 79 | 1013.9 |
| 20260906041605 | 71 | 56 | 10.4 | 13.0 | 0.00 | 0.00 | 0.00 | 79 | 1013.9 |
| 20260906041100 | 71 | 28 | 10.4 | 13.0 | 0.00 | 0.00 | 0.00 | 78 | 1013.9 |
| 20260906040601 | 71 | 43 | 9.6 | 13.9 | 0.00 | 0.00 | 0.00 | 79 | 1013.8 |
| 20260906040058 | 71 | 48 | 9.6 | 15.6 | 0.00 | 0.00 | 0.00 | 82 | 1013.9 |
| 20260906035557 | 71 | 43 | 11.3 | 15.6 | 0.00 | 0.00 | 0.00 | 81 | 1013.8 |
| 20260906035057 | 71 | 22 | 10.4 | 12.2 | 0.00 | 0.00 | 0.00 | 84 | 1013.8 |
| 20260906034620 | 71 | 22 | 9.6 | 13.0 | 0.00 | 0.00 | 0.00 | 84 | 1013.7 |
| 20260906034056 | 71 | 44 | 8.7 | 13.0 | 0.00 | 0.00 | 0.00 | 82 | 1013.8 |
| 20260906033557 | 71 | 36 | 10.4 | 13.0 | 0.00 | 0.00 | 0.00 | 82 | 1013.9 |
| 20260906033056 | 71 | 18 | 9.6 | 12.2 | 0.00 | 0.00 | 0.00 | 83 | 1013.8 |
| 20260906032555 | 71 | 19 | 9.6 | 12.2 | 0.00 | 0.00 | 0.00 | 84 | 1013.7 |
| 20260906032056 | 71 | 17 | 9.6 | 12.2 | 0.00 | 0.00 | 0.00 | 83 | 1013.8 |
| 20260906031554 | 71 | 20 | 9.6 | 12.2 | 0.00 | 0.00 | 0.00 | 84 | 1013.7 |
| 20260906031055 | 71 | 24 | 9.6 | 12.2 | 0.00 | 0.00 | 0.00 | 85 | 1013.7 |
| 20260906030555 | 71 | 14 | 8.7 | 11.3 | 0.00 | 0.00 | 0.00 | 84 | 1013.6 |
| 20260906030055 | 71 | 17 | 9.6 | 11.3 | 0.00 | 0.00 | 0.00 | 84 | 1013.6 |
| 20260906025554 | 71 | 351 | 7.8 | 11.3 | 0.00 | 0.00 | 0.00 | 84 | 1013.6 |
| 20260906025057 | 71 | 5 | 8.7 | 10.4 | 0.00 | 0.00 | 0.00 | 84 | 1013.6 |
| 20260906024553 | 71 | 355 | 8.7 | 10.4 | 0.00 | 0.00 | 0.00 | 84 | 1013.5 |
| 20260906024053 | 71 | 5 | 7.8 | 9.6 | 0.00 | 0.00 | 0.00 | 83 | 1013.5 |
| 20260906023553 | 71 | 355 | 7.8 | 9.6 | 0.00 | 0.00 | 0.00 | 84 | 1013.5 |
| 20260906023053 | 71 | 355 | 7.8 | 9.6 | 0.00 | 0.00 | 0.00 | 84 | 1013.4 |
| 20260906022552 | 71 | 355 | 7.0 | 9.6 | 0.00 | 0.00 | 0.00 | 84 | 1013.4 |
| 20260906022052 | 71 | 344 | 6.1 | 8.7 | 0.00 | 0.00 | 0.00 | 85 | 1013.4 |
| 20260906021553 | 71 | 346 | 6.1 | 8.7 | 0.00 | 0.00 | 0.00 | 86 | 1013.5 |
| 20260906021056 | 71 | 340 | 4.3 | 7.8 | 0.00 | 0.00 | 0.00 | 85 | 1013.4 |
| 20260906020552 | 71 | 337 | 5.2 | 8.7 | 0.00 | 0.00 | 0.00 | 84 | 1013.5 |
| 20260906020059 | 71 | 321 | 5.2 | 8.7 | 0.00 | 0.00 | 0.00 | 83 | 1013.5 |
| 20260906015551 | 71 | 331 | 4.3 | 8.7 | 0.00 | 0.00 | 0.00 | 84 | 1013.5 |
| 20260906015051 | 71 | 355 | 7.0 | 8.7 | 0.00 | 0.00 | 0.00 | 83 | 1013.4 |
| 20260906014551 | 70 | 317 | 6.1 | 8.7 | 0.00 | 0.00 | 0.00 | 81 | 1013.5 |
| 20260906014050 | 71 | 325 | 7.0 | 8.7 | 0.00 | 0.00 | 0.00 | 83 | 1013.4 |
| 20260906013552 | 71 | 355 | 6.1 | 8.7 | 0.00 | 0.00 | 0.00 | 83 | 1013.4 |
| 20260906013102 | 70 | 338 | 7.0 | 8.7 | 0.00 | 0.00 | 0.00 | 82 | 1013.3 |
| 20260906012549 | 70 | 340 | 7.0 | 8.7 | 0.00 | 0.00 | 0.00 | 83 | 1013.3 |
| 20260906012052 | 70 | 315 | 6.1 | 8.7 | 0.00 | 0.00 | 0.00 | 84 | 1013.3 |
| 20260906011550 | 70 | 344 | 4.3 | 7.8 | 0.00 | 0.00 | 0.00 | 84 | 1013.4 |
| 20260906011049 | 70 | 317 | 4.3 | 7.8 | 0.00 | 0.00 | 0.00 | 83 | 1013.4 |
| 20260906010550 | 70 | 327 | 4.3 | 8.7 | 0.00 | 0.00 | 0.00 | 84 | 1013.4 |
| 20260906010052 | 70 | 312 | 5.2 | 8.7 | 0.00 | 0.00 | 0.00 | 83 | 1013.4 |
| 20260906005549 | 70 | 311 | 5.2 | 7.8 | 0.00 | 0.00 | 0.00 | 82 | 1013.4 |
| 20260906005049 | 70 | 336 | 6.1 | 10.4 | 0.00 | 0.00 | 0.00 | 82 | 1013.3 |
| 20260906004549 | 70 | 327 | 4.3 | 10.4 | 0.00 | 0.00 | 0.00 | 82 | 1013.2 |
| 20260906004048 | 70 | 322 | 5.2 | 7.8 | 0.00 | 0.00 | 0.00 | 83 | 1013.1 |
| 20260906003549 | 70 | 318 | 4.3 | 7.0 | 0.00 | 0.00 | 0.00 | 82 | 1013.1 |
| 20260906003049 | 70 | 328 | 4.3 | 7.8 | 0.00 | 0.00 | 0.00 | 82 | 1013.2 |
| 20260906002548 | 70 | 333 | 3.5 | 7.8 | 0.00 | 0.00 | 0.00 | 83 | 1013.3 |
| 20260906002050 | 70 | 319 | 4.3 | 7.8 | 0.00 | 0.00 | 0.00 | 82 | 1013.3 |
| 20260906001548 | 70 | 322 | 4.3 | 7.8 | 0.00 | 0.00 | 0.00 | 84 | 1013.4 |
| 20260906001051 | 70 | 306 | 4.3 | 7.0 | 0.00 | 0.00 | 0.00 | 83 | 1013.4 |
| 20260906000548 | 70 | 312 | 4.3 | 7.8 | 0.00 | 0.00 | 0.00 | 83 | 1013.3 |
| 20260906000057 | 70 | 306 | 5.2 | 7.8 | 0.00 | 0.00 | 0.00 | 83 | 1013.3 |
| 20260905235548 | 70 | 312 | 4.3 | 7.0 | 0.00 | 0.00 | 0.00 | 83 | 1013.4 |
| 20260905235048 | 70 | 320 | 4.3 | 7.0 | 0.00 | 0.00 | 0.00 | 83 | 1013.4 |
| 20260905234556 | 70 | 298 | 5.2 | 7.8 | 0.00 | 0.00 | 0.00 | 83 | 1013.4 |
| 20260905234047 | 69 | 302 | 5.2 | 7.8 | 0.00 | 0.00 | 0.00 | 83 | 1013.3 |
| 20260905233547 | 69 | 316 | 3.5 | 7.8 | 0.00 | 0.00 | 0.00 | 83 | 1013.2 |
| 20260905233048 | 69 | 321 | 4.3 | 7.0 | 0.00 | 0.00 | 0.00 | 83 | 1013.3 |
| 20260905232547 | 69 | 326 | 3.5 | 5.2 | 0.00 | 0.00 | 0.00 | 83 | 1013.3 |
| 20260905232047 | 69 | 313 | 3.5 | 5.2 | 0.00 | 0.00 | 0.00 | 83 | 1013.1 |
| 20260905231547 | 69 | 306 | 3.5 | 7.0 | 0.00 | 0.00 | 0.00 | 84 | 1013.1 |
| 20260905231046 | 70 | 281 | 3.5 | 5.2 | 0.00 | 0.00 | 0.00 | 84 | 1013.2 |
| 20260905230546 | 70 | 319 | 3.5 | 5.2 | 0.00 | 0.00 | 0.00 | 84 | 1013.2 |
| 20260905230047 | 70 | 311 | 3.5 | 5.2 | 0.00 | 0.00 | 0.00 | 83 | 1013.3 |
| 20260905225547 | 69 | 309 | 2.6 | 6.1 | 0.00 | 0.00 | 0.00 | 83 | 1013.1 |
| 20260905225045 | 69 | 298 | 2.6 | 6.1 | 0.00 | 0.00 | 0.00 | 83 | 1013.3 |
| 20260905224547 | 69 | 317 | 3.5 | 5.2 | 0.00 | 0.00 | 0.00 | 83 | 1013.3 |
| 20260905224046 | 69 | 329 | 3.5 | 5.2 | 0.00 | 0.00 | 0.00 | 83 | 1013.4 |
| 20260905223544 | 69 | 315 | 3.5 | 5.2 | 0.00 | 0.00 | 0.00 | 82 | 1013.3 |
| 20260905223049 | 70 | 314 | 2.6 | 5.2 | 0.00 | 0.00 | 0.00 | 82 | 1013.3 |
| 20260905222545 | 70 | 318 | 3.5 | 5.2 | 0.00 | 0.00 | 0.00 | 81 | 1013.4 |
| 20260905222044 | 70 | 328 | 3.5 | 5.2 | 0.00 | 0.00 | 0.00 | 81 | 1013.3 |
| 20260905221543 | 70 | 327 | 2.6 | 5.2 | 0.00 | 0.00 | 0.00 | 81 | 1013.2 |
| 20260905221046 | 70 | 347 | 3.5 | 5.2 | 0.00 | 0.00 | 0.00 | 82 | 1013.3 |
| 20260905220544 | 70 | 331 | 3.5 | 5.2 | 0.00 | 0.00 | 0.00 | 83 | 1013.2 |
| 20260905220043 | 70 | 308 | 2.6 | 5.2 | 0.00 | 0.00 | 0.00 | 82 | 1013.1 |
| 20260905215543 | 70 | 340 | 2.6 | 4.3 | 0.00 | 0.00 | 0.00 | 81 | 1013.2 |